This is the latest recevied weather packets stored in our database for station/object KC4LZN. If no packets are shown the sender has not sent any weather packets the latest 1 day(s).
| Time | Temp. | Humidity | Pressure | Rain* | Wind** | Luminosity | Snow |
|---|---|---|---|---|---|---|---|
| 1778032617 | 22.22° C | 64% | 1017 hPa | 0 mm | - | 0 W/m² | - |
| 1778032315 | 22.22° C | 64% | 1017.1 hPa | 0 mm | - | 0 W/m² | - |
| 1778032012 | 22.22° C | 64% | 1016.9 hPa | 0 mm | - | 0 W/m² | - |
| 1778031708 | 22.78° C | 63% | 1016.7 hPa | 0 mm | - | 0 W/m² | - |
| 1778031406 | 22.78° C | 63% | 1016.7 hPa | 0 mm | - | 0 W/m² | - |
| 1778031103 | 22.78° C | 62% | 1016.7 hPa | 0 mm | - | 0 W/m² | - |
| 1778030799 | 22.78° C | 61% | 1016.6 hPa | 0 mm | - | 0 W/m² | - |
| 1778030496 | 22.78° C | 61% | 1016.7 hPa | 0 mm | - | 0 W/m² | - |
| 1778030193 | 22.78° C | 60% | 1016.4 hPa | 0 mm | - | 0 W/m² | - |
| 1778029890 | 23.33° C | 60% | 1016.5 hPa | 0 mm | - | 0 W/m² | - |
| 1778029588 | 23.33° C | 60% | 1016.6 hPa | 0 mm | - | 0 W/m² | - |
| 1778029285 | 23.33° C | 60% | 1016.5 hPa | 0 mm | - | 0 W/m² | - |
| 1778028982 | 23.33° C | 59% | 1016.5 hPa | 0 mm | - | 0 W/m² | - |
| 1778028678 | 23.89° C | 59% | 1016.3 hPa | 0 mm | - | 0 W/m² | - |
| 1778028375 | 23.89° C | 59% | 1016.3 hPa | 0 mm | - | 0 W/m² | - |
| 1778028072 | 23.89° C | 59% | 1016.3 hPa | 0 mm | - | 0 W/m² | - |
| 1778027161 | 23.89° C | 58% | 1016 hPa | 0 mm | - | 0 W/m² | - |
| 1778026553 | 24.44° C | 57% | 1015.7 hPa | 0 mm | - | 0 W/m² | - |
| 1778026250 | 24.44° C | 57% | 1015.9 hPa | 0 mm | - | 1 W/m² | - |
| 1778025645 | 24.44° C | 57% | 1015.9 hPa | 0 mm | - | 4 W/m² | - |
| 1778025343 | 25° C | 56% | 1015.6 hPa | 0 mm | - | 7 W/m² | - |
| 1778024737 | 25° C | 55% | 1015.5 hPa | 0 mm | - | 18 W/m² | - |
| 1778023828 | 25.56° C | 55% | 1015.5 hPa | 0 mm | - | 36 W/m² | - |
| 1778023223 | 26.11° C | 55% | 1015.4 hPa | 0 mm | - | 49 W/m² | - |
| 1778022619 | 26.11° C | 54% | 1015.2 hPa | 0 mm | - | 58 W/m² | - |
* Rain latest hour (hover to see other rain measurements)
** Current wind speed in m/s (hover to see current wind gust speed)